Total_Precipitation_Accumulation
1.26 1.26 1.30 1.29 1.20 1.10 1.04 0.99 0.93 0.89 0.85 0.80 0.76 0.72 0.72 0.75 0.77 0.80 0.79 0.80 0.86 0.87 0.87 0.86 0.85 0.86 0.90 0.89 0.94 1.04 1.18 1.32 1.45 1.35 1.15 1.04 1.03 1.08 1.13 1.05 1.01 0.94 0.86
1.08 1.17 1.22 1.17 1.12 1.05 0.97 0.90 0.86 0.77 0.72 0.70 0.71 0.67 0.62 0.60 0.64 0.69 0.73 0.73 0.81 0.83 0.82 0.84 0.82 0.82 0.87 0.86 0.88 0.93 1.05 1.20 1.35 1.41 1.26 1.14 1.05 1.01 1.02 0.99 0.85 0.79 0.80
0.89 0.90 0.99 0.99 0.97 0.93 0.84 0.76 0.70 0.65 0.63 0.61 0.58 0.57 0.57 0.54 0.54 0.56 0.59 0.62 0.70 0.76 0.78 0.85 0.86 0.86 0.84 0.83 0.86 0.92 1.04 1.16 1.31 1.36 1.28 1.19 1.14 1.07 1.10 1.03 0.92 0.99 0.83
0.81 0.82 0.87 0.88 0.88 0.90 0.83 0.73 0.63 0.56 0.54 0.52 0.47 0.47 0.52 0.50 0.44 0.43 0.46 0.51 0.58 0.62 0.65 0.78 0.85 0.84 0.84 0.87 0.90 0.95 1.03 1.17 1.26 1.30 1.24 1.15 1.13 1.12 1.17 1.20 1.15 1.09 0.96
0.80 0.83 0.90 0.85 0.82 0.87 0.90 0.80 0.68 0.59 0.52 0.51 0.48 0.43 0.46 0.43 0.39 0.40 0.42 0.42 0.50 0.53 0.55 0.63 0.70 0.71 0.73 0.78 0.81 0.89 1.01 1.16 1.23 1.29 1.25 1.18 1.10 1.20 1.23 1.19 1.15 1.15 1.01
0.74 0.85 0.91 0.90 0.88 0.89 0.94 0.89 0.79 0.69 0.61 0.52 0.47 0.44 0.44 0.40 0.39 0.37 0.39 0.42 0.48 0.56 0.62 0.63 0.59 0.60 0.59 0.58 0.65 0.74 0.89 1.08 1.23 1.30 1.27 1.23 1.16 1.19 1.26 1.25 1.24 1.26 1.23
0.80 0.83 0.88 0.90 0.95 0.95 0.92 0.88 0.84 0.74 0.66 0.58 0.48 0.48 0.48 0.40 0.34 0.31 0.32 0.40 0.51 0.60 0.66 0.65 0.53 0.51 0.61 0.64 0.65 0.67 0.78 0.89 1.10 1.30 1.36 1.26 1.21 1.21 1.33 1.39 1.34 1.31 1.29
0.85 0.83 0.78 0.77 0.79 0.77 0.81 0.86 0.81 0.74 0.66 0.59 0.51 0.48 0.48 0.36 0.30 0.28 0.31 0.36 0.44 0.47 0.49 0.55 0.63 0.65 0.58 0.60 0.62 0.73 0.82 0.92 1.00 1.11 1.27 1.20 1.12 1.18 1.28 1.32 1.26 1.21 1.13
0.80 0.75 0.67 0.62 0.64 0.63 0.68 0.75 0.73 0.70 0.62 0.54 0.47 0.47 0.47 0.38 0.30 0.26 0.29 0.36 0.41 0.38 0.35 0.39 0.46 0.50 0.48 0.55 0.67 0.83 0.89 1.00 1.03 1.19 1.21 1.14 1.11 1.11 1.05 1.09 1.27 1.36 1.28
0.68 0.61 0.56 0.53 0.56 0.58 0.61 0.67 0.66 0.64 0.53 0.44 0.41 0.42 0.40 0.38 0.29 0.24 0.26 0.31 0.39 0.36 0.38 0.43 0.43 0.37 0.40 0.51 0.70 0.89 1.04 1.08 1.17 1.37 1.35 1.30 1.20 1.13 1.03 1.05 1.29 1.45 1.40
0.52 0.51 0.52 0.55 0.57 0.56 0.61 0.65 0.60 0.53 0.49 0.44 0.43 0.42 0.37 0.30 0.24 0.19 0.19 0.24 0.31 0.36 0.41 0.47 0.47 0.40 0.38 0.44 0.62 0.82 0.99 1.03 1.25 1.51 1.41 1.24 1.16 1.10 1.08 1.09 1.20 1.26 1.23
0.47 0.51 0.54 0.54 0.51 0.50 0.58 0.63 0.55 0.52 0.50 0.50 0.49 0.43 0.35 0.27 0.21 0.17 0.14 0.13 0.17 0.34 0.48 0.45 0.43 0.41 0.39 0.46 0.61 0.78 0.92 1.10 1.30 1.40 1.21 1.06 0.96 0.93 0.97 0.92 0.88 0.88 0.93
0.46 0.55 0.56 0.52 0.59 0.58 0.55 0.53 0.51 0.50 0.44 0.41 0.41 0.38 0.35 0.30 0.25 0.18 0.15 0.14 0.16 0.28 0.41 0.45 0.43 0.40 0.51 0.71 0.84 0.95 1.10 1.30 1.36 1.23 1.08 0.96 0.83 0.80 0.77 0.77 0.76 0.78 0.79
0.52 0.54 0.53 0.56 0.66 0.64 0.53 0.42 0.38 0.37 0.33 0.32 0.34 0.35 0.36 0.35 0.28 0.22 0.22 0.23 0.25 0.30 0.40 0.52 0.58 0.60 0.76 0.97 1.13 1.23 1.33 1.36 1.22 1.09 1.00 0.87 0.72 0.71 0.72 0.70 0.76 0.77 0.81
0.48 0.51 0.52 0.54 0.58 0.59 0.48 0.33 0.27 0.21 0.17 0.20 0.24 0.26 0.32 0.32 0.22 0.20 0.22 0.25 0.28 0.31 0.37 0.56 0.71 0.75 0.88 1.03 1.17 1.25 1.31 1.30 1.20 1.06 0.95 0.85 0.75 0.70 0.69 0.65 0.70 0.70 0.74
0.46 0.43 0.39 0.40 0.40 0.39 0.38 0.33 0.20 0.10 0.07 0.07 0.09 0.13 0.16 0.17 0.15 0.14 0.18 0.22 0.26 0.33 0.44 0.68 0.79 0.79 0.85 0.94 1.05 1.15 1.15 1.11 1.05 1.03 0.98 0.93 0.83 0.73 0.70 0.67 0.66 0.69 0.75
0.40 0.40 0.31 0.27 0.27 0.26 0.28 0.34 0.31 0.18 0.08 0.06 0.06 0.08 0.10 0.11 0.14 0.14 0.17 0.22 0.25 0.36 0.50 0.70 0.80 0.86 0.90 0.92 0.94 0.98 1.05 1.04 0.97 0.95 0.93 0.86 0.78 0.71 0.69 0.69 0.67 0.68 0.67
0.28 0.24 0.24 0.26 0.22 0.20 0.20 0.21 0.25 0.31 0.29 0.21 0.12 0.09 0.10 0.13 0.16 0.17 0.19 0.23 0.30 0.35 0.51 0.67 0.78 0.85 0.89 0.91 0.89 0.88 0.92 0.95 0.90 0.83 0.80 0.77 0.72 0.71 0.69 0.68 0.65 0.59 0.55
0.25 0.22 0.20 0.18 0.15 0.13 0.13 0.14 0.18 0.23 0.26 0.26 0.23 0.16 0.15 0.17 0.20 0.20 0.24 0.31 0.38 0.39 0.47 0.59 0.70 0.77 0.78 0.79 0.81 0.81 0.84 0.88 0.83 0.78 0.79 0.79 0.76 0.71 0.65 0.56 0.48 0.39 0.41
0.15 0.12 0.13 0.13 0.10 0.09 0.10 0.13 0.17 0.21 0.24 0.24 0.26 0.24 0.21 0.29 0.40 0.36 0.32 0.35 0.38 0.38 0.44 0.55 0.64 0.67 0.66 0.63 0.62 0.65 0.67 0.70 0.72 0.74 0.73 0.70 0.66 0.60 0.52 0.44 0.40 0.39 0.40
0.10 0.10 0.09 0.08 0.07 0.07 0.08 0.09 0.11 0.15 0.19 0.22 0.18 0.17 0.27 0.36 0.45 0.43 0.41 0.45 0.47 0.45 0.44 0.48 0.53 0.57 0.57 0.54 0.52 0.50 0.51 0.56 0.58 0.61 0.64 0.63 0.56 0.49 0.42 0.36 0.34 0.31 0.30
0.08 0.09 0.08 0.07 0.08 0.08 0.08 0.08 0.09 0.10 0.13 0.18 0.17 0.16 0.26 0.32 0.37 0.41 0.43 0.47 0.51 0.50 0.46 0.47 0.50 0.52 0.52 0.49 0.45 0.43 0.43 0.47 0.48 0.51 0.54 0.51 0.45 0.40 0.33 0.28 0.26 0.25 0.24
0.07 0.08 0.08 0.06 0.06 0.06 0.08 0.08 0.09 0.09 0.10 0.13 0.14 0.17 0.23 0.31 0.36 0.42 0.48 0.50 0.51 0.53 0.49 0.45 0.52 0.56 0.49 0.43 0.39 0.37 0.36 0.37 0.37 0.41 0.50 0.51 0.43 0.36 0.31 0.26 0.22 0.20 0.19
0.06 0.06 0.07 0.07 0.06 0.06 0.07 0.07 0.06 0.06 0.07 0.09 0.11 0.13 0.19 0.24 0.29 0.35 0.43 0.48 0.53 0.55 0.53 0.54 0.60 0.56 0.45 0.39 0.35 0.33 0.34 0.36 0.34 0.36 0.39 0.42 0.38 0.30 0.24 0.22 0.19 0.18 0.19
0.06 0.05 0.05 0.05 0.05 0.06 0.06 0.06 0.05 0.05 0.06 0.08 0.09 0.11 0.14 0.17 0.19 0.24 0.32 0.37 0.41 0.45 0.47 0.51 0.52 0.44 0.38 0.34 0.31 0.31 0.34 0.32 0.28 0.31 0.36 0.39 0.33 0.26 0.23 0.20 0.19 0.18 0.18
0.05 0.05 0.04 0.04 0.04 0.04 0.04 0.04 0.03 0.05 0.06 0.07 0.08 0.10 0.11 0.14 0.17 0.21 0.24 0.27 0.30 0.33 0.37 0.42 0.42 0.34 0.27 0.25 0.25 0.23 0.19 0.16 0.15 0.18 0.28 0.33 0.28 0.24 0.24 0.22 0.17 0.18 0.20